Temperature
23 23 22 21 20 21 23 22 23 24 24 24 24 23 22 21 21 20 20 21 21 21 20 20 20 20 20 20 20 20 20 20 20 20 19 19 20 19 19 19 19 19 19 19 19 19 19 19 19
24 23 22 21 21 22 23 22 23 24 23 24 24 23 22 20 20 20 20 21 21 21 20 21 21 20 20 20 20 20 20 20 20 20 20 20 20 20 19 19 19 19 19 19 19 19 19 19 19
24 23 23 21 21 23 24 23 24 24 25 25 23 23 22 21 21 21 21 21 21 21 21 21 21 21 21 21 20 20 20 20 20 20 20 20 20 19 19 19 19 19 19 19 19 19 19 19 19
23 23 23 22 23 24 25 24 24 24 24 24 23 21 22 21 22 21 21 21 21 21 21 21 22 21 21 21 21 20 20 20 20 20 20 20 20 19 19 19 19 19 19 19 19 19 19 19 19
24 24 21 22 23 25 24 24 25 25 25 24 23 21 20 21 22 22 21 21 21 21 21 21 22 22 21 21 21 21 20 20 20 20 20 20 20 20 19 19 19 19 19 19 19 19 18 18 18
24 22 22 22 23 26 26 26 25 25 24 23 22 21 20 21 21 21 21 21 21 21 21 21 21 22 21 21 21 21 20 20 20 20 19 19 19 19 19 19 19 19 19 19 18 18 18 18 18
23 20 22 23 23 25 26 25 25 25 23 24 24 20 19 21 21 21 21 21 21 21 21 21 21 21 21 21 21 20 20 20 20 19 19 19 19 19 19 18 18 18 18 18 18 18 18 18 18
24 20 22 22 24 25 26 26 26 26 24 24 23 21 20 22 21 21 21 21 21 21 20 20 20 20 21 20 20 20 19 19 19 19 19 19 19 19 19 18 18 18 18 18 18 18 18 18 18
24 20 21 23 25 26 27 27 26 25 25 24 24 24 24 23 21 20 20 20 20 20 20 20 20 20 20 20 19 19 19 19 19 19 19 19 19 19 18 18 18 18 18 18 18 18 18 18 18
22 19 21 23 25 25 26 26 26 25 23 23 23 23 24 22 21 20 20 19 19 19 19 20 20 20 20 20 19 19 19 19 19 19 19 19 19 18 18 18 18 18 18 18 18 18 18 18 18
22 21 22 24 26 26 26 27 26 24 22 24 25 23 22 22 21 20 20 20 20 19 19 19 19 19 20 20 20 20 20 20 20 19 19 19 18 18 18 18 18 18 17 18 18 17 17 17 17
22 23 24 25 27 26 25 27 27 26 27 29 27 26 24 22 22 21 21 20 20 20 20 20 19 19 19 19 20 20 20 20 19 19 19 18 18 18 18 17 17 17 17 17 17 18 17 17 17
22 23 25 26 27 27 26 26 26 26 29 28 26 25 24 23 21 21 21 21 20 20 20 20 20 20 19 19 20 19 19 19 19 19 19 18 18 18 18 18 17 17 17 17 17 18 17 17 18
23 23 23 25 27 27 26 26 26 28 28 26 25 24 22 21 19 19 20 20 20 20 21 21 20 20 20 20 20 19 19 19 19 18 18 18 18 18 17 18 17 17 17 17 17 17 17 18 18
23 22 23 24 25 26 26 25 26 27 26 24 22 20 19 20 20 21 20 21 21 20 20 20 20 20 20 20 20 20 19 18 18 18 18 18 18 18 18 17 17 17 17 17 17 17 18 18 18
21 21 22 23 23 25 25 24 25 26 24 21 21 20 20 20 21 21 21 21 20 20 20 20 19 19 19 19 20 19 19 18 18 18 18 18 18 18 18 17 17 17 17 17 17 17 17 18 18
20 20 22 22 23 24 24 23 23 23 22 20 20 20 20 20 20 20 20 20 19 20 21 21 21 20 19 18 19 19 18 18 18 18 18 18 18 18 18 17 18 18 17 18 18 18 18 18 18
21 21 21 20 22 22 22 20 19 21 20 20 19 19 19 18 17 17 17 18 19 20 20 21 21 21 19 18 18 18 18 18 18 18 18 18 17 17 17 17 18 18 18 18 18 18 18 17 18
21 21 21 21 22 21 20 18 18 19 19 18 17 17 16 16 16 17 17 17 18 19 19 19 20 20 19 19 18 18 18 18 18 18 18 17 17 17 17 18 18 18 18 18 17 17 17 17 17
21 21 20 21 21 21 20 19 18 18 16 16 16 16 16 17 18 18 18 18 19 18 18 19 20 19 18 18 18 18 18 17 17 17 17 17 17 17 17 18 18 18 18 17 17 16 16 16 16
20 20 20 19 20 20 20 19 17 17 16 16 16 16 15 16 18 19 21 20 18 18 19 20 21 20 19 18 18 18 17 17 17 16 16 17 18 18 18 18 17 17 16 16 17 16 16 15 15
20 21 21 20 19 18 19 18 18 15 15 16 16 16 15 15 16 16 16 17 17 18 18 19 20 21 20 20 18 17 16 16 16 16 15 16 16 17 17 17 17 17 16 16 16 15 15 15 15
21 20 19 19 19 18 18 17 17 15 15 16 16 16 16 17 17 18 17 17 18 18 18 19 19 20 20 20 18 17 16 15 14 14 15 15 16 16 16 16 16 16 16 16 15 15 15 14 14
20 19 17 15 15 17 17 17 16 15 15 15 16 17 18 18 19 19 19 18 17 16 16 16 17 18 19 18 17 16 15 15 14 15 15 15 15 15 16 16 16 15 15 15 14 14 14 14 14
18 18 16 16 16 17 15 16 16 16 15 15 15 16 18 18 18 18 18 18 17 16 16 15 16 17 17 17 17 15 15 15 15 14 15 15 15 15 15 15 15 14 14 14 14 13 14 14 14
18 16 16 15 15 15 16 16 16 16 15 15 16 16 16 16 16 16 16 15 15 14 15 15 15 15 14 14 15 15 14 15 14 14 14 14 14 15 15 15 14 14 14 14 14 14 14 13 13
16 16 16 15 13 12 14 15 17 15 14 15 15 15 16 17 17 17 16 15 15 15 14 14 14 14 14 14 14 14 14 14 13 13 13 13 13 13 14 14 14 14 14 14 14 14 13 13 13
16 15 13 15 14 13 14 13 16 16 15 15 14 15 16 17 17 16 16 15 15 15 15 15 14 14 14 14 14 14 14 14 13 13 13 13 13 13 13 13 13 13 13 13 13 13 13 13 13
16 14 14 13 13 13 14 15 14 16 16 14 14 16 16 16 16 15 15 15 15 14 14 14 14 13 13 13 14 14 14 13 13 13 13 13 13 13 13 12 12 12 13 13 13 13 13 13 13
16 14 13 14 13 11 11 14 15 14 13 13 14 15 15 15 15 14 14 14 14 14 13 13 13 13 13 14 14 14 14 13 13 13 13 13 13 13 13 12 12 12 12 12 12 12 12 12 12
Wind_Speed
2 5 4 3 2 3 2 1 1 2 2 1 3 4 7 5 4 3 4 6 13 14 16 19 20 20 19 17 16 16 15 14 13 13 13 13 13 12 11 9 8 8 6 6 5 4 4 5 5
1 2 2 2 2 2 3 2 1 3 7 7 5 4 3 1 3 5 6 8 14 13 15 18 21 21 20 18 16 16 15 14 13 13 12 12 12 12 11 9 8 7 6 5 4 3 3 3 4
2 2 2 2 2 3 2 2 2 8 6 3 3 3 2 2 5 8 5 12 12 11 14 18 22 22 21 19 18 16 16 14 13 12 11 10 9 8 8 8 7 5 5 4 4 3 3 3 3
2 1 3 1 3 3 1 3 3 7 4 2 5 4 1 3 8 9 11 12 13 9 12 17 21 21 20 20 19 18 16 15 12 11 10 9 8 7 6 5 4 4 4 4 5 4 3 3 3
3 3 3 3 4 3 1 3 5 4 2 3 5 5 2 2 7 13 14 12 11 8 11 16 20 20 20 19 19 17 15 14 12 10 9 8 7 7 6 5 5 5 5 4 3 3 3 4 5
3 3 2 3 6 5 4 6 6 3 2 3 6 6 4 6 11 13 13 11 11 10 9 13 20 20 19 18 17 16 15 13 11 9 8 7 7 7 7 6 5 5 5 5 4 5 5 5 6
3 3 2 3 6 6 3 4 6 6 4 5 7 5 3 5 9 12 11 10 10 8 7 8 13 17 18 16 15 14 13 11 10 9 8 8 7 6 6 7 8 8 7 7 6 7 7 7 8
4 4 2 3 3 4 4 2 2 7 3 3 4 5 6 9 12 11 10 8 8 7 6 5 7 10 11 12 14 13 11 10 10 9 9 8 8 8 7 8 9 10 10 10 9 10 10 10 10
3 3 2 5 3 3 6 4 2 3 5 2 4 5 7 17 16 13 10 9 9 8 7 5 5 7 8 8 10 12 11 11 10 9 9 8 7 7 6 8 10 11 12 12 11 12 13 12 13
4 3 6 5 2 4 4 6 6 6 5 5 4 3 15 19 17 16 16 16 16 15 12 9 7 6 9 9 9 10 10 11 12 10 9 7 7 7 8 9 11 12 13 13 14 14 15 14 12
3 5 4 5 4 5 4 3 4 7 7 11 9 14 20 20 18 17 17 15 15 12 11 10 7 6 7 6 8 9 10 9 10 10 9 7 7 7 8 8 10 12 13 12 13 13 13 13 12
2 5 5 5 5 4 3 3 4 9 13 8 12 20 22 22 22 20 17 15 14 13 12 10 9 8 7 7 7 8 8 9 8 10 11 8 6 5 6 6 9 9 10 9 10 9 10 11 12
3 5 6 8 11 6 2 4 5 10 9 6 16 20 21 20 15 12 13 14 14 16 15 13 12 11 9 7 6 7 8 9 11 12 13 12 7 6 6 6 7 8 9 7 7 7 7 8 10
4 6 7 7 7 5 2 3 2 8 6 10 15 16 15 13 11 9 9 11 12 13 13 11 12 13 12 11 8 6 7 9 10 10 12 14 11 7 6 6 6 7 9 9 7 6 5 6 7
3 5 5 3 4 3 1 5 5 2 8 8 9 8 9 10 12 12 11 11 12 11 10 9 10 11 11 12 12 8 10 10 9 10 13 14 13 11 8 6 6 7 8 8 7 7 6 6 6
5 3 4 5 5 4 3 5 9 3 10 9 9 9 10 11 13 11 10 8 6 4 4 7 9 10 12 12 12 8 9 9 9 11 12 14 15 15 10 7 7 9 8 6 5 6 5 6 6
5 3 4 6 4 4 2 6 7 2 8 10 11 11 10 7 4 3 2 2 3 6 8 10 10 9 9 9 9 10 9 8 9 10 10 12 13 13 9 7 7 9 6 5 5 6 6 6 7
2 4 4 5 6 6 5 7 10 5 5 5 4 3 1 5 13 19 17 7 3 3 4 8 9 9 9 7 6 7 6 7 7 7 9 10 10 10 9 6 6 5 5 6 6 6 6 6 7
3 2 2 4 5 5 5 7 11 12 12 12 11 12 14 12 12 17 17 15 14 12 8 4 4 5 6 6 6 6 6 5 5 6 8 10 10 9 8 5 5 3 4 6 6 5 7 6 3
3 4 4 4 5 4 5 5 7 11 10 10 11 9 8 7 7 5 6 12 16 14 10 4 2 1 4 5 6 6 4 3 3 3 4 6 6 6 3 1 1 3 4 6 6 6 5 5 4
4 4 2 4 6 4 5 4 6 6 6 9 10 6 4 1 5 7 9 6 8 12 8 4 2 7 8 7 5 2 2 2 2 2 1 2 3 2 1 2 2 4 4 6 7 8 9 9 6
2 1 2 3 4 4 4 4 3 4 6 6 7 7 6 3 7 8 12 10 11 12 8 5 7 12 12 6 5 6 3 5 5 2 2 2 3 4 2 2 2 3 3 5 6 7 7 8 7
2 2 2 0 2 2 2 2 6 5 6 9 8 8 8 7 8 10 9 8 9 8 6 6 8 9 5 5 3 5 8 11 5 3 3 1 3 5 3 1 2 3 2 4 4 5 5 5 6
3 3 4 4 3 2 2 1 6 4 3 5 8 9 8 9 11 12 11 8 5 6 6 5 8 9 6 2 4 3 8 10 7 4 3 3 3 3 1 1 3 3 2 3 4 4 4 4 3
6 6 5 6 4 4 3 2 7 5 6 6 6 9 9 10 11 13 13 13 10 7 7 8 7 8 9 8 7 8 10 10 8 5 3 2 2 1 1 1 2 2 3 4 4 3 4 3 3
3 6 4 2 4 6 5 6 5 5 4 5 7 9 10 11 11 11 12 13 15 15 12 7 4 5 5 1 4 6 8 7 4 3 4 3 2 2 2 3 2 3 4 5 5 4 4 4 4
3 3 4 4 0 4 6 7 7 4 7 9 10 9 10 11 10 10 11 11 12 14 13 10 6 5 5 6 7 8 7 7 6 7 6 5 3 2 3 4 5 5 6 6 5 4 4 4 4
4 5 3 1 1 4 6 5 6 6 10 11 10 10 10 9 9 9 8 9 10 10 9 7 8 8 7 10 11 11 11 9 8 6 5 5 3 3 6 6 6 5 5 5 4 3 3 4 4
4 2 3 3 3 3 5 8 8 9 9 9 11 9 9 10 9 8 8 8 8 9 7 3 2 4 7 8 7 8 10 7 5 4 5 5 4 4 5 5 4 3 3 4 4 4 4 5 5
5 6 7 5 4 3 3 9 7 8 8 7 10 9 9 9 8 6 6 6 7 9 11 10 5 0 4 6 9 10 10 6 4 5 5 4 5 5 5 4 4 2 3 3 5 6 6 8 8
Wind_Direction
207 160 150 149 64 32 354 259 270 325 89 42 115 151 146 134 154 201 160 156 139 145 156 156 157 154 151 149 147 145 142 138 135 131 130 132 135 139 136 134 135 137 138 134 134 139 139 133 132
248 158 123 108 76 31 297 263 224 172 156 122 87 82 91 112 114 134 147 156 143 145 152 154 157 156 156 155 154 152 149 147 145 143 142 141 141 144 149 149 149 150 153 154 149 147 159 160 163
212 150 113 97 134 202 225 221 185 156 159 112 101 72 128 173 137 154 160 141 133 138 145 154 158 159 162 161 159 159 159 159 156 150 146 146 143 145 154 160 162 164 170 183 184 178 187 198 209
161 83 40 55 263 261 202 153 192 177 202 98 112 105 56 154 153 152 142 137 131 135 144 157 158 161 164 165 165 166 166 166 163 156 153 156 155 157 160 170 178 184 195 207 198 197 214 228 238
61 72 42 337 277 254 226 177 173 192 165 144 141 145 83 92 121 136 143 142 134 130 147 162 160 164 167 170 171 170 171 171 170 166 165 170 173 175 179 188 210 209 203 218 230 221 232 247 256
46 64 59 304 291 271 219 199 158 210 157 169 145 143 159 147 139 148 148 146 144 144 149 163 167 169 172 173 174 175 176 176 177 178 179 187 196 199 194 203 222 237 228 219 236 248 256 263 261
115 100 183 238 281 297 267 198 166 177 181 203 164 137 187 171 161 152 147 143 146 147 142 159 171 174 175 177 178 180 181 182 185 189 189 197 213 223 219 225 228 234 237 237 242 260 269 275 269
119 108 165 245 269 306 340 345 237 146 191 160 174 182 197 180 155 145 139 143 150 155 148 151 164 172 172 180 186 187 191 194 197 199 198 204 218 229 239 240 244 245 244 243 249 261 267 266 263
99 80 207 225 198 291 340 349 293 118 130 201 228 205 174 147 149 147 151 161 169 173 167 159 159 157 156 168 188 190 196 203 208 212 213 213 221 236 247 248 251 252 256 256 258 263 266 267 264
101 156 223 231 212 281 278 260 192 138 161 229 248 127 136 145 158 165 174 181 184 189 189 183 169 159 160 165 170 176 190 196 202 206 214 213 217 234 247 252 256 258 261 264 265 265 266 267 265
157 204 233 261 250 259 288 310 132 125 213 219 194 156 152 160 172 176 179 182 186 192 196 194 176 167 172 172 169 176 185 190 196 202 207 218 228 234 247 260 264 265 266 266 265 266 266 265 258
252 254 248 270 276 282 235 213 190 175 228 223 165 161 165 177 183 181 178 177 180 188 197 191 180 180 185 183 182 185 188 188 195 203 207 210 227 234 234 240 252 255 256 255 256 254 254 264 265
235 276 270 266 286 279 243 228 195 222 245 121 142 165 180 188 188 180 175 177 181 190 194 186 183 186 190 192 195 197 198 196 196 200 209 211 216 226 237 244 251 256 256 250 254 250 247 256 262
237 268 279 286 297 309 334 326 213 257 133 131 157 175 181 179 179 182 182 180 183 193 198 190 193 195 192 198 201 204 206 208 203 206 212 213 216 220 226 239 249 259 258 255 252 250 248 254 258
288 308 322 315 335 319 52 326 281 247 129 141 155 162 168 179 183 190 187 188 188 196 193 194 199 201 202 203 201 201 208 202 206 217 220 220 220 219 221 230 242 251 262 266 261 258 260 264 259
351 11 1 312 350 331 94 272 276 164 142 151 155 171 180 186 188 189 186 187 190 196 191 206 212 207 210 209 204 199 206 206 207 211 215 220 221 216 216 223 233 241 247 248 252 255 263 263 258
10 350 337 312 327 335 20 276 314 203 158 166 173 180 192 191 172 152 140 160 172 198 206 207 205 205 214 223 219 206 200 204 205 200 205 211 209 208 206 220 231 236 244 247 245 251 243 258 261
276 324 312 292 319 1 13 312 331 301 161 170 179 175 147 50 32 29 20 12 357 274 248 229 206 197 197 205 220 238 219 204 196 193 194 199 202 206 206 215 231 238 250 263 261 264 261 257 264
217 248 290 293 317 353 9 347 349 29 54 35 21 21 33 44 31 27 15 19 20 9 359 310 239 216 196 197 198 209 215 204 200 210 198 194 196 196 196 199 217 231 249 268 279 287 283 272 250
86 60 10 312 323 2 355 2 358 47 53 42 33 33 45 22 358 359 343 355 4 355 357 345 249 271 273 245 220 210 182 199 213 227 219 188 173 157 166 127 339 317 309 299 286 272 278 274 223
57 82 4 308 325 354 1 359 10 27 32 36 36 45 91 189 271 278 276 226 249 264 278 290 297 274 267 281 251 242 180 188 119 115 54 357 356 7 17 22 339 301 286 284 286 277 270 276 253
356 242 299 323 5 319 21 288 315 327 330 354 12 30 33 304 262 244 258 267 252 246 248 244 231 241 233 205 259 237 125 64 72 88 102 40 335 303 331 344 309 295 294 285 283 287 284 279 281
274 348 349 321 147 269 314 247 275 341 329 335 344 357 353 334 307 287 269 276 288 283 270 261 258 253 235 136 242 236 107 92 91 111 82 18 288 279 267 317 308 307 302 297 312 327 312 288 286
355 27 32 42 59 273 265 295 278 246 244 296 318 324 325 320 313 306 302 305 316 313 316 309 298 285 271 137 139 152 141 136 153 153 185 232 245 252 289 335 341 329 316 305 317 324 325 319 302
48 45 2 353 358 263 273 262 252 223 216 224 258 283 297 301 302 303 306 309 306 293 277 264 261 272 258 212 172 173 152 139 148 156 169 208 212 166 39 357 330 328 318 325 326 322 324 326 333
94 122 152 235 271 292 288 254 258 247 226 238 251 263 278 272 266 269 279 294 302 298 280 262 252 264 274 275 91 68 70 80 92 152 181 184 159 132 66 39 13 352 0 8 5 357 350 349 359
148 165 150 139 259 291 282 297 302 271 268 267 263 262 268 273 267 266 272 270 273 274 271 266 231 207 160 138 124 116 120 136 163 184 179 162 150 133 91 62 51 44 38 28 21 13 356 354 15
108 134 133 136 225 281 281 266 243 267 266 266 263 263 280 289 293 299 311 305 290 274 269 249 184 171 171 170 172 158 156 150 158 170 146 119 115 109 94 79 68 60 48 29 18 359 2 26 29
143 142 125 150 166 209 275 271 225 232 247 261 274 278 288 294 298 307 320 327 337 346 348 6 82 158 189 180 170 156 129 132 151 140 121 114 104 102 104 97 82 47 18 21 14 7 13 31 24
162 173 158 176 218 179 221 271 254 256 275 266 273 285 290 292 294 310 324 1 35 50 46 35 38 13 218 179 156 143 122 124 109 88 75 73 77 80 83 84 74 41 20 19 21 18 22 31 34
Height
1512 1511 1511 1513 1516 1519 1520 1516 1510 1506 1505 1506 1507 1507 1508 1510 1515 1521 1513 1513 1518 1522 1525 1529 1533 1536 1539 1541 1543 1545 1547 1548 1550 1551 1552 1554 1555 1556 1557 1559 1560 1561 1561 1562 1562 1563 1563 1564 1564
1512 1512 1514 1514 1519 1528 1522 1511 1508 1503 1504 1505 1507 1507 1508 1508 1507 1509 1510 1513 1517 1521 1524 1527 1532 1536 1539 1542 1544 1546 1548 1549 1551 1552 1553 1555 1556 1557 1557 1559 1560 1561 1562 1563 1563 1563 1564 1564 1564
1511 1512 1513 1514 1522 1521 1517 1508 1505 1504 1504 1504 1507 1509 1510 1508 1507 1509 1512 1514 1518 1521 1524 1528 1531 1534 1538 1540 1543 1545 1548 1550 1551 1553 1555 1556 1557 1558 1558 1559 1560 1561 1562 1563 1563 1564 1564 1564 1564
1511 1513 1513 1516 1519 1510 1505 1504 1504 1506 1507 1506 1507 1509 1510 1509 1509 1511 1514 1516 1518 1521 1525 1528 1531 1534 1537 1540 1542 1544 1547 1550 1552 1554 1556 1557 1558 1559 1559 1560 1561 1562 1562 1563 1563 1563 1564 1564 1564
1511 1511 1518 1521 1515 1506 1504 1503 1502 1504 1506 1507 1507 1508 1510 1511 1511 1513 1515 1517 1519 1522 1525 1528 1532 1535 1537 1540 1542 1545 1547 1550 1552 1554 1556 1557 1558 1559 1560 1561 1561 1562 1562 1563 1564 1564 1564 1563 1563
1511 1512 1523 1526 1516 1504 1501 1501 1501 1502 1505 1507 1506 1507 1509 1510 1512 1513 1516 1518 1520 1523 1526 1529 1532 1535 1538 1540 1543 1545 1547 1550 1552 1553 1555 1556 1558 1559 1560 1561 1561 1562 1562 1563 1563 1564 1563 1563 1562
1512 1516 1522 1522 1516 1507 1500 1500 1499 1501 1503 1505 1505 1507 1507 1508 1512 1514 1516 1518 1520 1523 1526 1529 1532 1535 1538 1541 1543 1545 1547 1549 1551 1552 1554 1555 1557 1558 1559 1560 1561 1561 1562 1562 1562 1563 1563 1562 1561
1511 1516 1521 1520 1516 1508 1500 1499 1498 1500 1504 1506 1506 1505 1505 1505 1509 1513 1516 1519 1520 1523 1526 1529 1532 1535 1538 1541 1543 1545 1547 1549 1551 1552 1553 1554 1556 1557 1558 1559 1559 1560 1560 1560 1560 1560 1560 1560 1560
1512 1521 1525 1517 1513 1506 1500 1499 1499 1498 1501 1504 1504 1502 1501 1502 1507 1511 1514 1516 1518 1522 1525 1529 1532 1535 1538 1541 1543 1545 1546 1548 1550 1552 1552 1553 1554 1556 1556 1557 1558 1558 1559 1559 1558 1558 1558 1558 1558
1512 1523 1518 1508 1506 1504 1502 1500 1497 1498 1501 1503 1501 1500 1500 1502 1505 1508 1510 1512 1515 1519 1523 1527 1530 1532 1535 1538 1540 1542 1543 1546 1548 1549 1551 1551 1552 1553 1554 1555 1556 1556 1557 1557 1556 1556 1556 1555 1555
1510 1514 1509 1505 1504 1502 1499 1498 1497 1499 1502 1496 1496 1497 1499 1501 1503 1505 1508 1511 1515 1519 1523 1526 1529 1531 1533 1535 1537 1539 1540 1542 1544 1546 1547 1549 1549 1550 1551 1553 1553 1554 1554 1554 1554 1554 1554 1553 1551
1510 1506 1504 1503 1500 1500 1498 1497 1497 1496 1494 1492 1494 1495 1496 1497 1498 1500 1505 1509 1513 1518 1522 1524 1527 1529 1531 1533 1534 1535 1537 1539 1541 1543 1544 1545 1547 1548 1549 1550 1551 1551 1552 1552 1551 1551 1550 1550 1549
1510 1506 1502 1499 1496 1493 1494 1493 1494 1492 1491 1492 1492 1493 1493 1495 1499 1504 1507 1510 1512 1515 1518 1521 1524 1526 1528 1530 1531 1532 1534 1534 1536 1538 1540 1541 1543 1545 1546 1547 1548 1549 1549 1549 1548 1548 1547 1547 1546
1507 1504 1501 1497 1494 1491 1492 1491 1493 1488 1489 1490 1491 1491 1493 1498 1503 1506 1508 1509 1511 1515 1518 1519 1522 1524 1526 1527 1528 1530 1532 1533 1534 1535 1536 1538 1539 1541 1543 1544 1545 1546 1546 1547 1546 1546 1545 1543 1543
1504 1504 1500 1498 1496 1494 1493 1495 1492 1488 1488 1490 1492 1495 1497 1498 1501 1503 1506 1509 1513 1516 1519 1521 1523 1524 1525 1524 1525 1526 1529 1531 1532 1534 1535 1535 1537 1539 1541 1541 1542 1542 1543 1542 1542 1542 1541 1540 1539
1506 1509 1511 1502 1498 1494 1500 1506 1490 1488 1488 1490 1491 1494 1495 1496 1498 1501 1505 1510 1515 1519 1521 1523 1523 1523 1524 1523 1522 1523 1526 1528 1529 1531 1533 1533 1535 1536 1538 1538 1539 1539 1539 1539 1538 1538 1537 1536 1535
1516 1520 1515 1509 1499 1496 1499 1502 1492 1490 1489 1489 1489 1490 1493 1496 1499 1504 1510 1514 1516 1518 1519 1519 1519 1519 1522 1523 1522 1521 1522 1524 1525 1527 1528 1529 1530 1532 1533 1534 1535 1536 1535 1535 1534 1533 1533 1531 1531
1521 1518 1516 1513 1501 1499 1501 1501 1495 1490 1491 1492 1492 1493 1497 1504 1510 1512 1514 1515 1517 1517 1518 1518 1517 1518 1520 1522 1523 1523 1521 1520 1520 1521 1521 1523 1524 1526 1527 1529 1530 1531 1531 1531 1530 1529 1528 1527 1527
1512 1515 1517 1510 1501 1503 1505 1505 1498 1494 1498 1501 1502 1505 1509 1511 1512 1511 1511 1512 1514 1515 1517 1517 1517 1516 1516 1516 1517 1517 1516 1514 1513 1515 1515 1516 1518 1519 1521 1523 1525 1526 1526 1526 1525 1523 1522 1521 1522
1510 1515 1517 1511 1503 1504 1505 1507 1503 1503 1505 1507 1507 1506 1507 1508 1509 1510 1509 1511 1508 1513 1513 1511 1511 1513 1514 1514 1512 1510 1509 1509 1507 1509 1512 1514 1516 1515 1517 1517 1519 1521 1521 1520 1520 1518 1516 1514 1515
1513 1518 1518 1519 1510 1506 1509 1513 1512 1509 1508 1508 1507 1506 1508 1508 1507 1507 1504 1507 1519 1517 1510 1504 1502 1504 1505 1507 1506 1504 1503 1504 1503 1502 1510 1515 1516 1514 1513 1513 1514 1517 1516 1515 1514 1513 1509 1506 1506
1518 1511 1512 1513 1519 1524 1519 1532 1517 1515 1511 1507 1506 1506 1507 1507 1506 1508 1506 1503 1501 1503 1501 1499 1497 1496 1494 1493 1499 1498 1495 1497 1498 1500 1506 1509 1510 1511 1511 1510 1511 1511 1510 1510 1507 1505 1503 1501 1500
1512 1509 1512 1513 1518 1524 1522 1528 1520 1516 1513 1508 1506 1505 1505 1504 1504 1504 1503 1500 1496 1495 1494 1492 1491 1489 1488 1480 1494 1490 1485 1486 1491 1494 1499 1503 1507 1509 1508 1506 1507 1506 1506 1505 1502 1500 1499 1498 1497
1509 1512 1518 1523 1528 1535 1526 1530 1527 1517 1512 1510 1506 1505 1504 1502 1500 1499 1496 1494 1492 1490 1487 1485 1486 1485 1483 1473 1477 1479 1481 1481 1486 1493 1499 1502 1502 1503 1502 1502 1503 1502 1501 1500 1499 1498 1496 1494 1493
1513 1524 1538 1539 1541 1536 1529 1530 1521 1509 1508 1507 1506 1504 1503 1502 1501 1498 1495 1491 1488 1485 1482 1481 1481 1481 1479 1469 1465 1465 1470 1477 1484 1490 1493 1496 1496 1496 1497 1498 1499 1498 1499 1497 1497 1495 1493 1493 1491
1518 1527 1544 1553 1550 1542 1527 1526 1514 1505 1505 1504 1503 1502 1502 1500 1499 1496 1493 1490 1486 1483 1480 1478 1475 1474 1473 1474 1475 1472 1474 1480 1486 1490 1491 1493 1492 1492 1493 1494 1494 1495 1495 1494 1494 1492 1491 1491 1489
1523 1526 1528 1538 1548 1553 1536 1521 1508 1503 1502 1500 1499 1498 1496 1495 1493 1491 1487 1483 1481 1478 1477 1476 1474 1473 1473 1475 1478 1477 1481 1484 1489 1491 1491 1491 1491 1490 1490 1491 1491 1491 1491 1492 1492 1491 1491 1489 1486
1518 1523 1537 1535 1547 1552 1536 1533 1518 1504 1499 1496 1494 1493 1492 1491 1489 1487 1483 1479 1475 1473 1471 1470 1470 1471 1470 1472 1476 1476 1479 1483 1487 1489 1487 1486 1488 1488 1487 1489 1490 1490 1490 1490 1490 1491 1490 1487 1484
1521 1526 1529 1538 1541 1546 1544 1526 1504 1497 1494 1493 1491 1490 1490 1487 1486 1484 1481 1477 1473 1471 1469 1467 1467 1466 1468 1471 1474 1478 1479 1483 1486 1485 1483 1483 1485 1485 1486 1488 1489 1489 1489 1487 1488 1488 1487 1485 1484
1513 1519 1525 1536 1539 1547 1547 1525 1494 1493 1492 1492 1489 1487 1486 1484 1483 1481 1478 1476 1474 1472 1470 1467 1468 1468 1468 1469 1473 1476 1478 1481 1483 1482 1480 1481 1482 1484 1486 1487 1487 1488 1487 1486 1485 1485 1485 1485 1485